Home   Weather   Darlington   Past weeks

Flag for United Kingdom Past Weather in Darlington, England, United Kingdom — Yesterday and Last 2 Weeks

Now
32 °F

Haze.


Feels Like: 26 °F
Forecast: 28 / 37 °F
Wind: 7 mph from South

Location: Tees-Side

Current Time: Jan 22, 2017 at 8:23:26 am

Latest Report: Jan 22, 2017 at 7:50 am


Visibility: 2 mi

Pressure: 30.24 "Hg

Humidity: 87%

Dew Point: 28 °F

Location of DarlingtonLocation

Past Weather in Darlington — Graph

°F

Darlington Temperature Yesterday

Maximum temperature yesterday: 39 °F (at 12:50 pm)
Minimum temperature yesterday: 28 °F (at 6:20 am)
Average temperature yesterday: 36 °F

High & Low Weather Summary for the Past Weeks

 TemperatureHumidityPressure
High50 °F (Jan 9, 7:50 am)100% (Jan 7, 9:20 am)30.63 "Hg (Jan 7, 9:20 am)
Low28 °F (Jan 21, 6:20 am)58% (Jan 11, 5:50 am)29.39 "Hg (Jan 12, 5:50 pm)
Average41 °F85%30.16 "Hg
* Reported Jan 7 6:20 am — Jan 22 6:50 am, Darlington, Weather by CustomWeather, © 2017

Note: Actual official high and low records may vary slightly from our data, if they occured in-between our weather recording intervals... More about our weather records

Advertising

Darlington Weather History for the Previous 24 Hours

Scroll right to see more
 ConditionsComfort  
Time TempWeatherWind HumidityBarometerVisibility
6:50 am
Sun, Jan 22
34 °FPassing clouds.7 mph87%30.24 "HgN/A
6:20 am36 °FPassing clouds.6 mph87%30.24 "HgN/A
5:50 am36 °FPassing clouds.5 mph87%30.24 "HgN/A
9:50 pm
Sat, Jan 21
37 °FPartly cloudy.5 mph100%30.30 "Hg4 mi
9:20 pm37 °FPartly cloudy.5 mph93%30.30 "Hg4 mi
8:50 pm37 °FPartly cloudy.6 mph93%30.30 "Hg5 mi
8:20 pm37 °FPassing clouds.5 mph93%30.30 "Hg5 mi
7:50 pm37 °FPassing clouds.5 mph93%30.30 "Hg4 mi
7:20 pm37 °FFog.5 mph93%30.30 "Hg3 mi
6:50 pm37 °FPassing clouds.5 mph100%30.33 "Hg2 mi
6:20 pm37 °FDrizzle. Fog.3 mph100%30.33 "Hg1 mi
5:50 pm37 °FFog.3 mph100%30.33 "Hg1 mi
5:20 pm37 °FFog.5 mph93%30.33 "Hg1 mi
4:50 pm39 °FFog.3 mph93%30.33 "Hg1 mi
4:20 pm39 °FFog.3 mph93%30.36 "Hg1 mi
3:50 pm39 °FDrizzle. Fog.2 mph93%30.36 "Hg1 mi
3:20 pm39 °FDrizzle. Broken clouds.No wind93%30.36 "Hg1 mi
2:50 pm39 °FDrizzle. Broken clouds.1 mph93%30.36 "Hg1 mi
2:20 pm39 °FPartly sunny.2 mph93%30.36 "Hg2 mi
1:50 pm39 °FPartly sunny.2 mph87%30.36 "Hg2 mi
1:20 pm39 °FPartly sunny.3 mph87%30.39 "Hg3 mi
12:50 pm39 °FPartly sunny.5 mph87%30.39 "Hg2 mi
12:20 pm37 °FFog.3 mph93%30.42 "Hg3 mi
11:50 am37 °FFog.3 mph93%30.42 "Hg3 mi
11:20 am37 °FFog.3 mph93%30.45 "Hg3 mi
10:50 am36 °FFog.3 mph93%30.45 "Hg2 mi
10:20 am36 °FFog.3 mph93%30.45 "Hg2 mi
9:50 am34 °FFog.3 mph100%30.45 "Hg2 mi
9:20 am34 °FFog.3 mph93%30.45 "Hg2 mi
8:50 am34 °FFog.2 mph93%30.45 "Hg1 mi
8:20 am34 °FFog.2 mph93%30.48 "Hg2 mi
Weather by CustomWeather, © 2017

See weather overviewHow to use our weather pages